Location: ???????
(55.4362°N, 38.1183°E)
Time: 11:44:33
(UTC+00:00)

deb Delta 139 - Pass Details

Date: 31 January 2022
Orbit: 790 x 1093 km, 98.7° (Epoch: 23 May)

Event Time Altitude Azimuth Distance (km) Brightness Sun altitude
Rises 16:02:55 0° 210° (SSW) 3,358 ? -17.2°
Reaches altitude 10° 16:05:50 10° 227° (SW) 2,469 ? -17.6°
Maximum altitude 16:09:50 20° 275° (W) 1,907 ? -18.2°
Drops below altitude 10° 16:14:03 10° 322° (NW) 2,618 ? -18.8°
Sets 16:17:16 0° 338° (NNW) 3,625 ? -19.2°
